Tracking 17155 objects as of 30-July-2015
HD Live streaming from Space Station

SL-16 DEB

Track SL-16 DEB now!
10-day predictions
SL-16 DEB is classified as:


NORAD ID: 36031
Int'l Code: 1996-051N
Perigee: 765.8 km
Apogee: 794.1 km
Inclination: 70.9 °
Period: 100.3 minutes
Semi major axis: 7150 km
RCS: 0.0057 m2 (small)
Launch date: September 4, 1996
Source: Commonwealth of Independent States (former USSR) (CIS)

Note: This is SATELLITE DEBRIS
Your satellite tracking list
Your tracking list is empty





NASA's NSSDC Master Catalog

Two Line Element Set (TLE):
1 36031U 96051N   15209.90803328  .00004120  00000-0  14398-2 0  9998
2 36031 070.8581 014.1891 0019763 089.3103 036.4731 14.35681811300115

Source of the keplerian elements: AFSPC

N2YO: 284